Time,TemperatureF,DewpointF,PressureIn,WindDirection,WindDirectionDegrees,WindSpeedMPH,WindSpeedGustMPH,Humidity,HourlyPrecipIn,Conditions,Clouds,dailyrainin,SoftwareType,DateUTC
2013-04-11 00:11:00,56.1,51.0,29.93,West,276,0.0,4.0,82,0.00,,,0.00,weatherlink.com 1.10,2013-04-11 04:11:00,
2013-04-11 00:26:00,55.4,51.0,29.93,West,276,1.0,1.0,85,0.00,,,0.00,weatherlink.com 1.10,2013-04-11 04:26:00,
2013-04-11 00:41:00,55.6,50.0,29.93,West,276,0.0,1.0,82,0.00,,,0.00,weatherlink.com 1.10,2013-04-11 04:41:00,
2013-04-11 00:56:00,54.9,51.0,29.93,West,276,0.0,1.0,85,0.00,,,0.00,weatherlink.com 1.10,2013-04-11 04:56:00,
2013-04-11 01:12:00,53.9,50.0,29.93,West,276,2.0,2.0,85,0.00,,,0.00,weatherlink.com 1.10,2013-04-11 05:12:00,
2013-04-11 01:26:00,52.8,49.0,29.92,West,276,0.0,1.0,86,0.00,,,0.00,weatherlink.com 1.10,2013-04-11 05:26:00,
2013-04-11 01:41:00,52.5,49.0,29.92,West,276,1.0,1.0,88,0.00,,,0.00,weatherlink.com 1.10,2013-04-11 05:41:00,
2013-04-11 01:56:00,52.4,49.0,29.92,West,276,0.0,2.0,88,0.00,,,0.00,weatherlink.com 1.10,2013-04-11 05:56:00,
2013-04-11 02:11:00,52.2,49.0,29.91,West,276,0.0,0.0,89,0.00,,,0.00,weatherlink.com 1.10,2013-04-11 06:11:00,
2013-04-11 02:26:00,51.8,48.0,29.91,West,276,0.0,1.0,88,0.00,,,0.00,weatherlink.com 1.10,2013-04-11 06:26:00,
2013-04-11 02:41:00,51.4,48.0,29.90,West,276,0.0,2.0,89,0.00,,,0.00,weatherlink.com 1.10,2013-04-11 06:41:00,
2013-04-11 02:56:00,51.4,48.0,29.89,West,276,0.0,0.0,89,0.00,,,0.00,weatherlink.com 1.10,2013-04-11 06:56:00,
2013-04-11 04:11:00,49.5,47.0,29.87,West,276,0.0,0.0,92,0.00,,,0.00,weatherlink.com 1.10,2013-04-11 08:11:00,
2013-04-11 04:41:00,49.2,47.0,29.87,West,276,1.0,2.0,93,0.00,,,0.00,weatherlink.com 1.10,2013-04-11 08:41:00,
2013-04-11 04:56:00,49.4,47.0,29.87,West,276,1.0,1.0,92,0.00,,,0.00,weatherlink.com 1.10,2013-04-11 08:56:00,
2013-04-11 05:11:00,49.4,47.0,29.87,WNW,286,0.0,2.0,92,0.00,,,0.00,weatherlink.com 1.10,2013-04-11 09:11:00,
2013-04-11 05:41:00,49.6,48.0,29.87,WNW,287,0.0,2.0,94,0.00,,,0.00,weatherlink.com 1.10,2013-04-11 09:41:00,
2013-04-11 05:56:00,48.7,47.0,29.87,WNW,287,0.0,3.0,93,0.00,,,0.00,weatherlink.com 1.10,2013-04-11 09:56:00,
2013-04-11 06:11:00,48.5,47.0,29.87,NE,45,0.0,3.0,93,0.00,,,0.00,weatherlink.com 1.10,2013-04-11 10:11:00,
2013-04-11 06:26:00,48.5,47.0,29.88,NE,45,0.0,1.0,93,0.00,,,0.00,weatherlink.com 1.10,2013-04-11 10:26:00,
2013-04-11 06:41:00,49.2,48.0,29.88,NE,45,0.0,2.0,95,0.00,,,0.00,weatherlink.com 1.10,2013-04-11 10:41:00,
2013-04-11 06:56:00,48.7,47.0,29.88,NE,45,0.0,0.0,93,0.00,,,0.00,weatherlink.com 1.10,2013-04-11 10:56:00,
2013-04-11 07:11:00,48.4,47.0,29.89,NNW,336,0.0,1.0,94,0.00,,,0.00,weatherlink.com 1.10,2013-04-11 11:11:00,
2013-04-11 07:26:00,48.7,47.0,29.89,NNW,336,0.0,1.0,95,0.00,,,0.00,weatherlink.com 1.10,2013-04-11 11:26:00,
2013-04-11 07:41:00,48.6,47.0,29.89,NNW,336,0.0,0.0,94,0.00,,,0.00,weatherlink.com 1.10,2013-04-11 11:41:00,
2013-04-11 07:56:00,49.2,48.0,29.90,NNW,336,0.0,0.0,95,0.00,,,0.00,weatherlink.com 1.10,2013-04-11 11:56:00,
2013-04-11 08:11:00,50.2,49.0,29.90,NNW,336,0.0,0.0,95,0.00,,,0.00,weatherlink.com 1.10,2013-04-11 12:11:00,
2013-04-11 08:26:00,51.5,50.0,29.90,NNW,336,0.0,2.0,94,0.00,,,0.00,weatherlink.com 1.10,2013-04-11 12:26:00,
2013-04-11 08:41:00,53.8,51.0,29.90,NNW,336,0.0,1.0,91,0.00,,,0.00,weatherlink.com 1.10,2013-04-11 12:41:00,
2013-04-11 08:56:00,57.3,54.0,29.89,NNW,336,0.0,1.0,87,0.00,,,0.00,weatherlink.com 1.10,2013-04-11 12:56:00,
2013-04-11 09:11:00,61.0,55.0,29.90,NE,48,1.0,3.0,80,0.00,,,0.00,weatherlink.com 1.10,2013-04-11 13:11:00,
2013-04-11 09:27:00,64.1,55.0,29.89,NNW,327,0.0,2.0,71,0.00,,,0.00,weatherlink.com 1.10,2013-04-11 13:27:00,
2013-04-11 09:42:00,66.1,55.0,29.88,SW,225,0.0,3.0,67,0.00,,,0.00,weatherlink.com 1.10,2013-04-11 13:42:00,
2013-04-11 09:57:00,67.6,54.0,29.87,WSW,244,3.0,6.0,62,0.00,,,0.00,weatherlink.com 1.10,2013-04-11 13:57:00,
2013-04-11 10:12:00,68.9,52.0,29.86,WSW,240,5.0,6.0,56,0.00,,,0.00,weatherlink.com 1.10,2013-04-11 14:12:00,
2013-04-11 10:27:00,69.2,52.0,29.86,WSW,238,5.0,8.0,54,0.00,,,0.00,weatherlink.com 1.10,2013-04-11 14:27:00,
2013-04-11 10:42:00,68.3,52.0,29.86,WSW,246,5.0,9.0,57,0.00,,,0.00,weatherlink.com 1.10,2013-04-11 14:42:00,
2013-04-11 10:57:00,67.1,53.0,29.87,SW,227,8.0,10.0,62,0.00,,,0.00,weatherlink.com 1.10,2013-04-11 14:57:00,
2013-04-11 11:12:00,67.5,54.0,29.86,SSW,200,5.0,9.0,63,0.00,,,0.00,weatherlink.com 1.10,2013-04-11 15:12:00,
2013-04-11 11:27:00,69.5,54.0,29.86,WSW,243,7.0,9.0,59,0.00,,,0.00,weatherlink.com 1.10,2013-04-11 15:27:00,
2013-04-11 11:42:00,70.4,55.0,29.85,SW,217,4.0,9.0,58,0.00,,,0.00,weatherlink.com 1.10,2013-04-11 15:42:00,
2013-04-11 11:57:00,71.2,53.0,29.85,WSW,242,7.0,9.0,53,0.00,,,0.00,weatherlink.com 1.10,2013-04-11 15:57:00,
2013-04-11 12:13:00,69.9,54.0,29.85,SE,128,1.0,12.0,58,0.00,,,0.00,weatherlink.com 1.10,2013-04-11 16:13:00,
2013-04-11 12:27:00,71.9,55.0,29.85,SSW,209,1.0,8.0,55,0.00,,,0.00,weatherlink.com 1.10,2013-04-11 16:27:00,
2013-04-11 12:42:00,72.3,55.0,29.84,West,281,5.0,9.0,54,0.00,,,0.00,weatherlink.com 1.10,2013-04-11 16:42:00,
2013-04-11 12:57:00,71.0,54.0,29.84,SW,215,0.0,10.0,56,0.00,,,0.00,weatherlink.com 1.10,2013-04-11 16:57:00,
2013-04-11 13:12:00,71.4,55.0,29.82,SW,229,4.0,9.0,57,0.00,,,0.00,weatherlink.com 1.10,2013-04-11 17:12:00,
2013-04-11 13:27:00,72.3,56.0,29.82,South,190,0.0,7.0,56,0.00,,,0.00,weatherlink.com 1.10,2013-04-11 17:27:00,
2013-04-11 13:42:00,72.6,56.0,29.81,SW,233,3.0,8.0,57,0.00,,,0.00,weatherlink.com 1.10,2013-04-11 17:42:00,
2013-04-11 13:57:00,74.2,55.0,29.80,SSW,198,3.0,10.0,52,0.00,,,0.00,weatherlink.com 1.10,2013-04-11 17:57:00,
2013-04-11 14:12:00,73.6,56.0,29.80,SSE,163,0.0,10.0,55,0.00,,,0.00,weatherlink.com 1.10,2013-04-11 18:12:00,
2013-04-11 14:27:00,74.5,54.0,29.79,SSW,199,7.0,9.0,49,0.00,,,0.00,weatherlink.com 1.10,2013-04-11 18:27:00,
2013-04-11 14:42:00,74.4,54.0,29.78,WSW,239,3.0,8.0,49,0.00,,,0.00,weatherlink.com 1.10,2013-04-11 18:42:00,
2013-04-11 14:57:00,75.5,55.0,29.78,SW,219,1.0,8.0,49,0.00,,,0.00,weatherlink.com 1.10,2013-04-11 18:57:00,
2013-04-11 15:12:00,75.0,53.0,29.77,SW,233,7.0,10.0,47,0.00,,,0.00,weatherlink.com 1.10,2013-04-11 19:12:00,
2013-04-11 15:27:00,74.9,54.0,29.76,WSW,248,2.0,7.0,48,0.00,,,0.00,weatherlink.com 1.10,2013-04-11 19:27:00,
2013-04-11 15:42:00,74.8,54.0,29.76,NNW,334,0.0,7.0,48,0.00,,,0.00,weatherlink.com 1.10,2013-04-11 19:42:00,
2013-04-11 15:58:00,73.8,55.0,29.76,WNW,298,1.0,5.0,52,0.00,,,0.00,weatherlink.com 1.10,2013-04-11 19:58:00,
2013-04-11 16:12:00,73.0,54.0,29.75,SW,225,2.0,6.0,51,0.00,,,0.00,weatherlink.com 1.10,2013-04-11 20:12:00,
2013-04-11 16:27:00,72.1,54.0,29.75,SW,224,0.0,7.0,53,0.00,,,0.00,weatherlink.com 1.10,2013-04-11 20:27:00,
2013-04-11 16:57:00,70.9,53.0,29.75,SSE,166,0.0,6.0,53,0.00,,,0.00,weatherlink.com 1.10,2013-04-11 20:57:00,
2013-04-11 17:12:00,71.2,53.0,29.74,SW,219,6.0,8.0,53,0.00,,,0.00,weatherlink.com 1.10,2013-04-11 21:12:00,
2013-04-11 17:43:00,71.9,54.0,29.73,East,96,3.0,6.0,53,0.00,,,0.00,weatherlink.com 1.10,2013-04-11 21:43:00,
2013-04-11 17:58:00,71.9,53.0,29.73,WSW,253,3.0,9.0,52,0.00,,,0.00,weatherlink.com 1.10,2013-04-11 21:58:00,
2013-04-11 18:13:00,71.3,54.0,29.74,WSW,241,0.0,5.0,54,0.00,,,0.00,weatherlink.com 1.10,2013-04-11 22:13:00,
2013-04-11 18:28:00,71.0,54.0,29.73,West,261,3.0,8.0,55,0.00,,,0.00,weatherlink.com 1.10,2013-04-11 22:28:00,
2013-04-11 18:43:00,70.7,54.0,29.73,SW,234,2.0,6.0,56,0.00,,,0.00,weatherlink.com 1.10,2013-04-11 22:43:00,
2013-04-11 18:58:00,70.2,54.0,29.73,West,260,0.0,7.0,56,0.00,,,0.00,weatherlink.com 1.10,2013-04-11 22:58:00,
2013-04-11 19:13:00,69.5,54.0,29.72,SW,234,4.0,6.0,58,0.00,,,0.00,weatherlink.com 1.10,2013-04-11 23:13:00,
2013-04-11 19:28:00,69.1,54.0,29.72,WSW,256,0.0,5.0,60,0.00,,,0.00,weatherlink.com 1.10,2013-04-11 23:28:00,
2013-04-11 19:44:00,68.7,55.0,29.72,SW,223,0.0,10.0,61,0.00,,,0.00,weatherlink.com 1.10,2013-04-11 23:44:00,
2013-04-11 19:58:00,68.3,55.0,29.71,SW,236,1.0,3.0,63,0.00,,,0.00,weatherlink.com 1.10,2013-04-11 23:58:00,
2013-04-11 20:13:00,68.1,56.0,29.71,WSW,249,0.0,6.0,65,0.00,,,0.00,weatherlink.com 1.10,2013-04-12 00:13:00,
2013-04-11 20:28:00,67.6,56.0,29.71,WSW,239,2.0,7.0,67,0.00,,,0.00,weatherlink.com 1.10,2013-04-12 00:28:00,
2013-04-11 20:43:00,65.4,58.0,29.71,SW,232,2.0,7.0,78,0.01,,,0.01,weatherlink.com 1.10,2013-04-12 00:43:00,
2013-04-11 20:58:00,62.7,59.0,29.70,WSW,240,2.0,6.0,86,0.01,,,0.01,weatherlink.com 1.10,2013-04-12 00:58:00,
2013-04-11 21:28:00,62.0,59.0,29.70,West,259,0.0,5.0,88,0.01,,,0.01,weatherlink.com 1.10,2013-04-12 01:28:00,
2013-04-11 21:43:00,61.6,59.0,29.69,WSW,246,2.0,4.0,90,0.04,,,0.05,weatherlink.com 1.10,2013-04-12 01:43:00,
2013-04-11 21:58:00,61.3,59.0,29.69,WSW,239,2.0,5.0,92,0.05,,,0.06,weatherlink.com 1.10,2013-04-12 01:58:00,
2013-04-11 22:13:00,61.1,59.0,29.68,West,276,2.0,6.0,92,0.07,,,0.08,weatherlink.com 1.10,2013-04-12 02:13:00,
2013-04-11 22:28:00,61.1,59.0,29.68,West,276,0.0,1.0,93,0.18,,,0.19,weatherlink.com 1.10,2013-04-12 02:28:00,
2013-04-11 22:43:00,61.2,60.0,29.68,NW,319,0.0,4.0,94,0.17,,,0.22,weatherlink.com 1.10,2013-04-12 02:43:00,
2013-04-11 22:58:00,62.0,60.0,29.67,SW,228,2.0,11.0,93,0.20,,,0.26,weatherlink.com 1.10,2013-04-12 02:58:00,
2013-04-11 23:13:00,62.2,60.0,29.66,SW,225,0.0,8.0,93,0.20,,,0.28,weatherlink.com 1.10,2013-04-12 03:13:00,
2013-04-11 23:28:00,62.7,60.0,29.66,SSW,205,4.0,8.0,92,0.11,,,0.30,weatherlink.com 1.10,2013-04-12 03:28:00,
2013-04-11 23:43:00,63.0,60.0,29.67,SSW,209,0.0,8.0,91,0.08,,,0.30,weatherlink.com 1.10,2013-04-12 03:43:00,
2013-04-11 23:58:00,62.5,60.0,29.66,SW,232,1.0,10.0,92,0.10,,,0.36,weatherlink.com 1.10,2013-04-12 03:58:00,